Погода в Орехово

Россия / Калужская область     55°10′40″N   36°57′56″E
темп.,
°C
ветер,
м/с
пор.,
м/с
влажн.,
%
обл.,
%
осадки,
мм/ч
давл.,
гПа
погр.,
м
26 сентября, вс
вс2600:00+9зюз4997100 0.9 1002582
03:00+9зсз4892100 1.6 1003841
06:00+8зсз4119383 0.5 1004827
09:00+9сз51188100 0.9 10051319
12:00+8сз51089100 1.1 10071096
15:00+9сз51086100 1.4 10091201
18:00+9сз51190100 0.3 10111011
21:00+9с51190100 0.8 1013774
27 сентября, пн
пн2700:00+8с4993100 0.2 1015642
03:00+8с41094100 0.7 1018630
06:00+8с41093100 0.1 1020615
09:00+8с41090100 0.1 1021492
12:00+8с489098 0.0 1022594
15:00+9с4887100 0.1 1023856
18:00+9с41087100 0.1 1023664
21:00+9ссв3989100 0.5 1024745
28 сентября, вт
вт2800:00+8ссв4990100 0.4 1025644
03:00+7ссв4891100 0.4 1026795
06:00+6св4888100 0.1 1027724
09:00+5св3886100 0.1 1029746
12:00+7св3679100 0.1 1030866
15:00+8св3675100 0.1 1031877
18:00+7св267599 0.0 1032356
21:00+7всв3563100 0.0 1034212
29 сентября, ср
ср2900:00+3св23865 0.0 103541
03:00+2ссв22925 0.0 103531
06:00+2ссв239330 0.0 103653
09:00+6ссв25715 0.0 1036313
12:00+10св245120 0.0 1035918
15:00+11ссв234573 0.0 10351117
18:00+7с2266100 0.0 103513
21:00+5св2275100 0.0 103521
30 сентября, чт
чт3000:00+5св117599 0.0 103610
03:00+4ссз11805 0.0 103610
06:00+5ссз1281100 0.0 103657
09:00+7сз137398 0.0 1036176
12:00+11ссз2361100 0.0 1035653
15:00+9ссз1276100 0.0 103570
18:00+8ссз1180100 0.0 103529
21:00+8ссз1280100 0.0 103547